Time,TemperatureF,DewpointF,PressureIn,WindDirection,WindDirectionDegrees,WindSpeedMPH,WindSpeedGustMPH,Humidity,HourlyPrecipIn,Conditions,Clouds,dailyrainin,SoftwareType,DateUTC
2013-03-13 00:00:00,40.0,27.6,29.34,NW,315,13.0,19.0,61,0.00,,,0.00,Weather View 32 v70,2013-03-13 04:00:00,
2013-03-13 00:05:00,40.0,27.6,29.34,WNW,292,6.0,19.0,61,0.80,,,0.80,Weather View 32 v70,2013-03-13 04:05:00,
2013-03-13 00:10:00,40.0,27.6,29.34,NW,315,6.0,19.0,61,0.80,,,0.80,Weather View 32 v70,2013-03-13 04:10:00,
2013-03-13 00:15:00,39.0,26.7,29.34,WSW,247,11.0,19.0,61,0.80,,,0.80,Weather View 32 v70,2013-03-13 04:15:00,
2013-03-13 00:20:00,39.0,26.7,29.34,WSW,247,7.0,20.0,61,0.80,,,0.80,Weather View 32 v70,2013-03-13 04:20:00,
2013-03-13 00:25:00,40.0,27.2,29.34,WSW,247,0.0,20.0,60,0.80,,,0.80,Weather View 32 v70,2013-03-13 04:25:00,
2013-03-13 00:30:00,39.0,26.7,29.35,WSW,247,5.0,20.0,61,0.80,,,0.80,Weather View 32 v70,2013-03-13 04:30:00,
2013-03-13 00:35:00,39.0,26.7,29.34,North,360,6.0,20.0,61,0.80,,,0.80,Weather View 32 v70,2013-03-13 04:35:00,
2013-03-13 00:42:00,39.0,26.7,29.34,WSW,247,9.0,20.0,61,0.80,,,0.80,Weather View 32 v70,2013-03-13 04:42:00,
2013-03-13 00:50:00,39.0,26.7,29.34,West,270,6.0,20.0,61,0.80,,,0.80,Weather View 32 v70,2013-03-13 04:50:00,
2013-03-13 00:55:00,39.0,26.7,29.34,WSW,247,1.0,20.0,61,0.80,,,0.80,Weather View 32 v70,2013-03-13 04:55:00,
2013-03-13 01:00:00,39.0,26.7,29.34,NNE,22,3.0,20.0,61,0.80,,,0.80,Weather View 32 v70,2013-03-13 05:00:00,
2013-03-13 01:10:00,39.0,27.1,29.34,SW,225,6.0,20.0,62,-0.80,,,0.00,Weather View 32 v70,2013-03-13 05:10:00,
2013-03-13 01:15:00,39.0,26.3,29.34,SW,225,1.0,20.0,60,-0.80,,,0.00,Weather View 32 v70,2013-03-13 05:15:00,
2013-03-13 01:20:00,39.0,26.3,29.34,West,270,10.0,18.0,60,-0.80,,,0.00,Weather View 32 v70,2013-03-13 05:20:00,
2013-03-13 01:25:00,39.0,26.3,29.34,West,270,6.0,18.0,60,-0.80,,,0.00,Weather View 32 v70,2013-03-13 05:25:00,
2013-03-13 01:30:00,39.0,26.3,29.34,West,270,12.0,18.0,60,-0.80,,,0.00,Weather View 32 v70,2013-03-13 05:30:00,
2013-03-13 01:35:00,39.0,25.9,29.34,SSW,202,6.0,18.0,59,-0.80,,,0.00,Weather View 32 v70,2013-03-13 05:35:00,
2013-03-13 01:40:00,39.0,25.9,29.34,WSW,247,5.0,18.0,59,-0.80,,,0.00,Weather View 32 v70,2013-03-13 05:40:00,
2013-03-13 01:45:00,39.0,25.9,29.34,WNW,292,7.0,17.0,59,-0.80,,,0.00,Weather View 32 v70,2013-03-13 05:45:00,
2013-03-13 01:50:00,39.0,26.3,29.33,WSW,247,18.0,23.0,60,-0.80,,,0.00,Weather View 32 v70,2013-03-13 05:50:00,
2013-03-13 01:55:00,39.0,25.5,29.34,West,270,2.0,23.0,58,-0.80,,,0.00,Weather View 32 v70,2013-03-13 05:55:00,
2013-03-13 02:00:00,39.0,25.0,29.33,West,270,10.0,23.0,57,-0.80,,,0.00,Weather View 32 v70,2013-03-13 06:00:00,
2013-03-13 02:05:00,39.0,25.0,29.32,West,270,3.0,23.0,57,0.00,,,0.00,Weather View 32 v70,2013-03-13 06:05:00,
2013-03-13 02:10:00,39.0,25.9,29.33,WSW,247,6.0,23.0,59,0.00,,,0.00,Weather View 32 v70,2013-03-13 06:10:00,
2013-03-13 02:15:00,39.0,25.5,29.33,South,180,2.0,23.0,58,0.00,,,0.00,Weather View 32 v70,2013-03-13 06:15:00,
2013-03-13 02:20:00,39.0,25.0,29.33,WSW,247,10.0,23.0,57,0.00,,,0.00,Weather View 32 v70,2013-03-13 06:20:00,
2013-03-13 02:25:00,39.0,25.0,29.32,SSW,202,5.0,23.0,57,0.00,,,0.00,Weather View 32 v70,2013-03-13 06:25:00,
2013-03-13 02:30:00,39.0,25.0,29.32,South,180,6.0,23.0,57,0.00,,,0.00,Weather View 32 v70,2013-03-13 06:30:00,
2013-03-13 02:40:00,39.0,24.6,29.32,NNW,337,5.0,23.0,56,0.00,,,0.00,Weather View 32 v70,2013-03-13 06:40:00,
2013-03-13 02:50:00,39.0,24.6,29.32,WSW,247,5.0,18.0,56,0.00,,,0.00,Weather View 32 v70,2013-03-13 06:50:00,
2013-03-13 02:55:00,39.0,24.6,29.32,West,270,9.0,20.0,56,0.00,,,0.00,Weather View 32 v70,2013-03-13 06:55:00,
2013-03-13 03:05:00,38.0,23.7,29.32,NW,315,7.0,20.0,56,0.00,,,0.00,Weather View 32 v70,2013-03-13 07:05:00,
2013-03-13 03:10:00,38.0,24.5,29.32,NE,45,1.0,20.0,58,0.00,,,0.00,Weather View 32 v70,2013-03-13 07:10:00,
2013-03-13 03:15:00,38.0,24.5,29.32,East,90,2.0,20.0,58,0.00,,,0.00,Weather View 32 v70,2013-03-13 07:15:00,
2013-03-13 03:20:00,37.0,23.6,29.32,East,90,5.0,20.0,58,0.00,,,0.00,Weather View 32 v70,2013-03-13 07:20:00,
2013-03-13 03:25:00,37.0,23.6,29.32,West,270,1.0,20.0,58,0.00,,,0.00,Weather View 32 v70,2013-03-13 07:25:00,
2013-03-13 03:30:00,38.0,23.7,29.32,SW,225,0.0,20.0,56,0.00,,,0.00,Weather View 32 v70,2013-03-13 07:30:00,
2013-03-13 03:40:00,37.0,23.2,29.32,South,180,0.0,20.0,57,0.00,,,0.00,Weather View 32 v70,2013-03-13 07:40:00,
2013-03-13 03:45:00,37.0,23.2,29.32,SW,225,5.0,20.0,57,0.00,,,0.00,Weather View 32 v70,2013-03-13 07:45:00,
2013-03-13 03:50:00,38.0,23.7,29.31,West,270,7.0,20.0,56,0.00,,,0.00,Weather View 32 v70,2013-03-13 07:50:00,
2013-03-13 03:55:00,38.0,23.7,29.31,SW,225,6.0,16.0,56,0.00,,,0.00,Weather View 32 v70,2013-03-13 07:55:00,
2013-03-13 04:00:00,38.0,23.7,29.31,West,270,7.0,15.0,56,0.00,,,0.00,Weather View 32 v70,2013-03-13 08:00:00,
2013-03-13 04:05:00,37.0,22.7,29.31,WNW,292,1.0,15.0,56,0.00,,,0.00,Weather View 32 v70,2013-03-13 08:05:00,
2013-03-13 04:15:00,38.0,23.7,29.31,West,270,6.0,15.0,56,0.00,,,0.00,Weather View 32 v70,2013-03-13 08:15:00,
2013-03-13 04:20:00,38.0,23.7,29.31,SW,225,6.0,15.0,56,0.00,,,0.00,Weather View 32 v70,2013-03-13 08:20:00,
2013-03-13 04:25:00,38.0,23.7,29.31,WSW,247,6.0,15.0,56,0.00,,,0.00,Weather View 32 v70,2013-03-13 08:25:00,
2013-03-13 04:30:00,38.0,23.7,29.31,WNW,292,9.0,14.0,56,0.00,,,0.00,Weather View 32 v70,2013-03-13 08:30:00,
2013-03-13 04:40:00,37.0,23.2,29.31,SW,225,4.0,14.0,57,0.00,,,0.00,Weather View 32 v70,2013-03-13 08:40:00,
2013-03-13 04:50:00,37.0,23.2,29.31,WSW,247,7.0,13.0,57,0.00,,,0.00,Weather View 32 v70,2013-03-13 08:50:00,
2013-03-13 04:55:00,37.0,24.0,29.31,SW,225,2.0,13.0,59,0.00,,,0.00,Weather View 32 v70,2013-03-13 08:55:00,
2013-03-13 05:00:00,36.0,23.8,29.32,SE,135,5.0,13.0,61,0.00,,,0.00,Weather View 32 v70,2013-03-13 09:00:00,
2013-03-13 05:10:00,36.0,23.8,29.31,NW,315,1.0,13.0,61,0.00,,,0.00,Weather View 32 v70,2013-03-13 09:10:00,
2013-03-13 05:15:00,36.0,23.8,29.31,West,270,0.0,13.0,61,0.00,,,0.00,Weather View 32 v70,2013-03-13 09:15:00,
2013-03-13 05:20:00,35.0,23.7,29.31,West,270,0.0,13.0,63,0.00,,,0.00,Weather View 32 v70,2013-03-13 09:20:00,
2013-03-13 05:25:00,34.0,23.8,29.31,NNW,337,1.0,12.0,66,0.00,,,0.00,Weather View 32 v70,2013-03-13 09:25:00,
2013-03-13 05:30:00,33.0,23.2,29.31,NNW,337,0.0,12.0,67,0.00,,,0.00,Weather View 32 v70,2013-03-13 09:30:00,
2013-03-13 05:35:00,32.0,24.0,29.31,West,270,5.0,10.0,72,0.00,,,0.00,Weather View 32 v70,2013-03-13 09:35:00,
2013-03-13 05:45:00,31.0,24.6,29.31,NE,45,4.0,10.0,77,0.00,,,0.00,Weather View 32 v70,2013-03-13 09:45:00,
2013-03-13 05:55:00,31.0,24.3,29.31,NNW,337,2.0,10.0,76,0.00,,,0.00,Weather View 32 v70,2013-03-13 09:55:00,
2013-03-13 06:00:00,30.0,23.7,29.31,NNW,337,0.0,10.0,77,0.00,,,0.00,Weather View 32 v70,2013-03-13 10:00:00,
2013-03-13 06:05:00,30.0,24.6,29.31,NW,315,1.0,10.0,80,0.00,,,0.00,Weather View 32 v70,2013-03-13 10:05:00,
2013-03-13 06:10:00,29.0,24.2,29.31,NW,315,0.0,6.0,82,0.00,,,0.00,Weather View 32 v70,2013-03-13 10:10:00,
2013-03-13 06:15:00,29.0,24.2,29.31,NW,315,0.0,6.0,82,0.00,,,0.00,Weather View 32 v70,2013-03-13 10:15:00,
2013-03-13 06:20:00,29.0,24.5,29.31,NNE,22,1.0,6.0,83,0.00,,,0.00,Weather View 32 v70,2013-03-13 10:20:00,
2013-03-13 06:25:00,29.0,24.5,29.31,West,270,2.0,6.0,83,0.00,,,0.00,Weather View 32 v70,2013-03-13 10:25:00,
2013-03-13 06:35:00,28.0,23.5,29.32,NNE,22,0.0,5.0,83,0.00,,,0.00,Weather View 32 v70,2013-03-13 10:35:00,
2013-03-13 06:40:00,28.0,24.4,29.32,NNE,22,0.0,5.0,86,0.00,,,0.00,Weather View 32 v70,2013-03-13 10:40:00,
2013-03-13 06:45:00,27.0,23.1,29.32,West,270,0.0,5.0,85,0.00,,,0.00,Weather View 32 v70,2013-03-13 10:45:00,
2013-03-13 06:50:00,27.0,22.8,29.32,West,270,0.0,5.0,84,0.00,,,0.00,Weather View 32 v70,2013-03-13 10:50:00,
2013-03-13 06:55:00,27.0,23.6,29.32,West,270,0.0,5.0,87,0.00,,,0.00,Weather View 32 v70,2013-03-13 10:55:00,
2013-03-13 07:00:00,26.0,23.2,29.32,WNW,292,0.0,5.0,89,0.00,,,0.00,Weather View 32 v70,2013-03-13 11:00:00,
2013-03-13 07:10:00,26.0,22.9,29.33,WNW,292,0.0,5.0,88,0.00,,,0.00,Weather View 32 v70,2013-03-13 11:10:00,
2013-03-13 07:20:00,26.0,24.3,29.32,WNW,292,0.0,5.0,93,0.00,,,0.00,Weather View 32 v70,2013-03-13 11:20:00,
2013-03-13 07:25:00,26.0,24.3,29.33,WNW,292,0.0,5.0,93,0.00,,,0.00,Weather View 32 v70,2013-03-13 11:25:00,
2013-03-13 07:30:00,26.0,24.0,29.33,WNW,292,0.0,3.0,92,0.00,,,0.00,Weather View 32 v70,2013-03-13 11:30:00,
2013-03-13 07:35:00,26.0,24.5,29.33,WSW,247,7.0,8.0,94,0.00,,,0.00,Weather View 32 v70,2013-03-13 11:35:00,
2013-03-13 07:40:00,27.0,25.8,29.32,NE,45,4.0,8.0,95,0.00,,,0.00,Weather View 32 v70,2013-03-13 11:40:00,
2013-03-13 07:45:00,26.0,25.0,29.32,NE,45,0.0,8.0,96,0.00,,,0.00,Weather View 32 v70,2013-03-13 11:45:00,
2013-03-13 07:50:00,26.0,24.8,29.32,WNW,292,1.0,8.0,95,0.00,,,0.00,Weather View 32 v70,2013-03-13 11:50:00,
2013-03-13 07:55:00,26.0,24.8,29.32,East,90,0.0,8.0,95,0.00,,,0.00,Weather View 32 v70,2013-03-13 11:55:00,
2013-03-13 08:05:00,27.0,25.8,29.33,East,90,0.0,8.0,95,0.00,,,0.00,Weather View 32 v70,2013-03-13 12:05:00,
2013-03-13 08:10:00,27.0,25.5,29.32,East,90,0.0,8.0,94,0.00,,,0.00,Weather View 32 v70,2013-03-13 12:10:00,
2013-03-13 08:15:00,28.0,26.5,29.32,East,90,0.0,8.0,94,0.00,,,0.00,Weather View 32 v70,2013-03-13 12:15:00,
2013-03-13 08:20:00,29.0,27.5,29.32,East,90,0.0,8.0,94,0.00,,,0.00,Weather View 32 v70,2013-03-13 12:20:00,
2013-03-13 08:25:00,30.0,28.2,29.32,East,90,0.0,8.0,93,0.00,,,0.00,Weather View 32 v70,2013-03-13 12:25:00,
2013-03-13 08:30:00,31.0,28.4,29.32,ESE,112,3.0,8.0,90,0.00,,,0.00,Weather View 32 v70,2013-03-13 12:30:00,
2013-03-13 08:35:00,33.0,26.3,29.32,SE,135,2.0,8.0,76,0.00,,,0.00,Weather View 32 v70,2013-03-13 12:35:00,
2013-03-13 08:40:00,34.0,26.6,29.32,SE,135,3.0,6.0,74,0.00,,,0.00,Weather View 32 v70,2013-03-13 12:40:00,
2013-03-13 08:45:00,33.0,26.9,29.32,WSW,247,2.0,6.0,78,0.00,,,0.00,Weather View 32 v70,2013-03-13 12:45:00,
2013-03-13 08:50:00,34.0,27.5,29.33,WSW,247,0.0,6.0,77,0.00,,,0.00,Weather View 32 v70,2013-03-13 12:50:00,
2013-03-13 09:00:00,36.0,26.8,29.32,NE,45,0.0,6.0,69,0.00,,,0.00,Weather View 32 v70,2013-03-13 13:00:00,
2013-03-13 09:05:00,38.0,29.1,29.33,SW,225,6.0,6.0,70,0.00,,,0.00,Weather View 32 v70,2013-03-13 13:05:00,
2013-03-13 09:10:00,38.0,27.3,29.33,SE,135,6.0,6.0,65,0.00,,,0.00,Weather View 32 v70,2013-03-13 13:10:00,
2013-03-13 09:15:00,38.0,26.9,29.33,SE,135,7.0,11.0,64,0.00,,,0.00,Weather View 32 v70,2013-03-13 13:15:00,
2013-03-13 09:25:00,39.0,27.8,29.34,South,180,7.0,12.0,64,0.00,,,0.00,Weather View 32 v70,2013-03-13 13:25:00,
2013-03-13 09:30:00,39.0,27.5,29.34,SW,225,9.0,12.0,63,0.00,,,0.00,Weather View 32 v70,2013-03-13 13:30:00,
2013-03-13 09:35:00,40.0,27.6,29.34,SE,135,6.0,12.0,61,0.00,,,0.00,Weather View 32 v70,2013-03-13 13:35:00,
2013-03-13 09:40:00,40.0,28.0,29.33,South,180,7.0,12.0,62,0.00,,,0.00,Weather View 32 v70,2013-03-13 13:40:00,
2013-03-13 09:45:00,41.0,28.6,29.33,SW,225,7.0,12.0,61,0.00,,,0.00,Weather View 32 v70,2013-03-13 13:45:00,
2013-03-13 09:55:00,41.0,28.6,29.33,SSE,157,9.0,14.0,61,0.00,,,0.00,Weather View 32 v70,2013-03-13 13:55:00,
2013-03-13 10:00:00,41.0,29.4,29.33,South,180,10.0,16.0,63,0.00,,,0.00,Weather View 32 v70,2013-03-13 14:00:00,
2013-03-13 10:10:00,42.0,28.7,29.33,South,180,9.0,16.0,59,0.00,,,0.00,Weather View 32 v70,2013-03-13 14:10:00,
2013-03-13 10:15:00,41.0,28.2,29.33,SW,225,12.0,16.0,60,0.00,,,0.00,Weather View 32 v70,2013-03-13 14:15:00,
2013-03-13 10:20:00,41.0,27.3,29.33,SSW,202,12.0,16.0,58,0.00,,,0.00,Weather View 32 v70,2013-03-13 14:20:00,
2013-03-13 10:25:00,42.0,28.7,29.33,SW,225,7.0,16.0,59,0.00,,,0.00,Weather View 32 v70,2013-03-13 14:25:00,
2013-03-13 10:30:00,42.0,28.7,29.33,SW,225,10.0,16.0,59,0.00,,,0.00,Weather View 32 v70,2013-03-13 14:30:00,
2013-03-13 10:35:00,42.0,29.1,29.33,South,180,14.0,17.0,60,0.00,,,0.00,Weather View 32 v70,2013-03-13 14:35:00,
2013-03-13 10:45:00,42.0,28.3,29.33,SSW,202,14.0,19.0,58,0.00,,,0.00,Weather View 32 v70,2013-03-13 14:45:00,
2013-03-13 10:50:00,42.0,28.7,29.33,SW,225,12.0,19.0,59,0.00,,,0.00,Weather View 32 v70,2013-03-13 14:50:00,
2013-03-13 11:00:00,42.0,27.4,29.33,WSW,247,7.0,19.0,56,0.00,,,0.00,Weather View 32 v70,2013-03-13 15:00:00,
2013-03-13 11:05:00,43.0,28.4,29.32,SSW,202,17.0,24.0,56,0.00,,,0.00,Weather View 32 v70,2013-03-13 15:05:00,
2013-03-13 11:10:00,41.0,26.9,29.33,SSW,202,13.0,24.0,57,0.00,,,0.00,Weather View 32 v70,2013-03-13 15:10:00,
2013-03-13 11:20:00,41.0,26.9,29.32,South,180,5.0,24.0,57,0.00,,,0.00,Weather View 32 v70,2013-03-13 15:20:00,
2013-03-13 11:25:00,41.0,27.8,29.32,WSW,247,7.0,24.0,59,0.00,,,0.00,Weather View 32 v70,2013-03-13 15:25:00,
2013-03-13 11:30:00,41.0,27.3,29.32,WSW,247,10.0,24.0,58,0.00,,,0.00,Weather View 32 v70,2013-03-13 15:30:00,
2013-03-13 11:35:00,41.0,28.2,29.32,SSW,202,16.0,24.0,60,0.00,,,0.00,Weather View 32 v70,2013-03-13 15:35:00,
2013-03-13 11:45:00,42.0,27.9,29.32,SSW,202,12.0,24.0,57,0.00,,,0.00,Weather View 32 v70,2013-03-13 15:45:00,
2013-03-13 11:55:00,43.0,27.0,29.31,West,270,8.0,24.0,53,0.00,,,0.00,Weather View 32 v70,2013-03-13 15:55:00,
2013-03-13 12:00:00,44.0,28.8,29.31,SW,225,13.0,24.0,55,0.00,,,0.00,Weather View 32 v70,2013-03-13 16:00:00,
2013-03-13 12:05:00,43.0,26.6,29.31,SW,225,26.0,29.0,52,0.00,,,0.00,Weather View 32 v70,2013-03-13 16:05:00,
2013-03-13 12:10:00,43.0,27.5,29.32,SW,225,12.0,29.0,54,0.00,,,0.00,Weather View 32 v70,2013-03-13 16:10:00,
2013-03-13 12:15:00,44.0,27.9,29.31,WSW,247,10.0,29.0,53,0.00,,,0.00,Weather View 32 v70,2013-03-13 16:15:00,
2013-03-13 12:20:00,44.0,25.5,29.31,SW,225,12.0,29.0,48,0.00,,,0.00,Weather View 32 v70,2013-03-13 16:20:00,
2013-03-13 12:25:00,45.0,27.5,29.30,SSE,157,9.0,29.0,50,0.00,,,0.00,Weather View 32 v70,2013-03-13 16:25:00,
2013-03-13 12:30:00,45.0,27.5,29.30,SW,225,20.0,29.0,50,0.00,,,0.00,Weather View 32 v70,2013-03-13 16:30:00,
2013-03-13 12:40:00,41.0,28.6,29.32,WSW,247,10.0,35.0,61,0.00,,,0.00,Weather View 32 v70,2013-03-13 16:40:00,
2013-03-13 12:49:00,40.0,27.6,29.33,SW,225,12.0,35.0,61,0.00,,,0.00,Weather View 32 v70,2013-03-13 16:49:00,
2013-03-13 12:55:00,42.0,28.3,29.32,SSW,202,8.0,35.0,58,0.00,,,0.00,Weather View 32 v70,2013-03-13 16:55:00,
2013-03-13 13:00:00,41.0,25.6,29.32,WSW,247,13.0,35.0,54,0.00,,,0.00,Weather View 32 v70,2013-03-13 17:00:00,
2013-03-13 13:05:00,42.0,27.9,29.32,SW,225,14.0,35.0,57,0.00,,,0.00,Weather View 32 v70,2013-03-13 17:05:00,
2013-03-13 13:10:00,42.0,27.0,29.32,SSW,202,13.0,35.0,55,0.00,,,0.00,Weather View 32 v70,2013-03-13 17:10:00,
2013-03-13 13:15:00,43.0,27.5,29.32,WSW,247,8.0,35.0,54,0.00,,,0.00,Weather View 32 v70,2013-03-13 17:15:00,
2013-03-13 13:20:00,44.0,27.0,29.32,South,180,11.0,35.0,51,0.00,,,0.00,Weather View 32 v70,2013-03-13 17:20:00,
2013-03-13 13:25:00,44.0,25.0,29.32,WSW,247,11.0,35.0,47,0.00,,,0.00,Weather View 32 v70,2013-03-13 17:25:00,
2013-03-13 13:35:00,43.0,23.6,29.31,South,180,7.0,35.0,46,0.00,,,0.00,Weather View 32 v70,2013-03-13 17:35:00,
2013-03-13 13:40:00,43.0,24.1,29.31,WSW,247,11.0,26.0,47,0.00,,,0.00,Weather View 32 v70,2013-03-13 17:40:00,
2013-03-13 13:49:00,43.0,20.3,29.31,SSW,202,10.0,26.0,40,0.00,,,0.00,Weather View 32 v70,2013-03-13 17:49:00,
2013-03-13 13:55:00,43.0,22.5,29.31,WSW,247,11.0,26.0,44,0.00,,,0.00,Weather View 32 v70,2013-03-13 17:55:00,
2013-03-13 14:00:00,44.0,22.3,29.30,South,180,10.0,32.0,42,0.00,,,0.00,Weather View 32 v70,2013-03-13 18:00:00,
2013-03-13 14:05:00,44.0,20.6,29.30,SW,225,22.0,32.0,39,0.00,,,0.00,Weather View 32 v70,2013-03-13 18:05:00,
2013-03-13 14:10:00,45.0,22.1,29.30,West,270,12.0,32.0,40,0.00,,,0.00,Weather View 32 v70,2013-03-13 18:10:00,
2013-03-13 14:20:00,44.0,22.9,29.31,SW,225,12.0,32.0,43,0.00,,,0.00,Weather View 32 v70,2013-03-13 18:20:00,
2013-03-13 14:25:00,43.0,19.7,29.30,West,270,10.0,32.0,39,0.00,,,0.00,Weather View 32 v70,2013-03-13 18:25:00,
2013-03-13 14:30:00,43.0,19.1,29.30,West,270,9.0,32.0,38,0.00,,,0.00,Weather View 32 v70,2013-03-13 18:30:00,
2013-03-13 14:35:00,43.0,19.1,29.30,WNW,292,12.0,32.0,38,0.00,,,0.00,Weather View 32 v70,2013-03-13 18:35:00,
2013-03-13 14:40:00,43.0,20.9,29.30,SSW,202,13.0,32.0,41,0.00,,,0.00,Weather View 32 v70,2013-03-13 18:40:00,
2013-03-13 14:45:00,42.0,20.5,29.30,West,270,9.0,32.0,42,0.00,,,0.00,Weather View 32 v70,2013-03-13 18:45:00,
2013-03-13 14:50:00,43.0,21.4,29.30,South,180,17.0,32.0,42,0.00,,,0.00,Weather View 32 v70,2013-03-13 18:50:00,
2013-03-13 15:00:00,43.0,21.4,29.30,SSW,202,12.0,30.0,42,0.00,,,0.00,Weather View 32 v70,2013-03-13 19:00:00,
2013-03-13 15:10:00,43.0,20.9,29.30,SSW,202,10.0,30.0,41,0.00,,,0.00,Weather View 32 v70,2013-03-13 19:10:00,
2013-03-13 15:15:00,43.0,22.5,29.29,SW,225,14.0,30.0,44,0.00,,,0.00,Weather View 32 v70,2013-03-13 19:15:00,
2013-03-13 15:20:00,43.0,21.4,29.29,SW,225,12.0,30.0,42,0.00,,,0.00,Weather View 32 v70,2013-03-13 19:20:00,
2013-03-13 15:25:00,43.0,20.9,29.29,SW,225,23.0,30.0,41,0.00,,,0.00,Weather View 32 v70,2013-03-13 19:25:00,
2013-03-13 15:30:00,43.0,22.5,29.30,SSW,202,11.0,30.0,44,0.00,,,0.00,Weather View 32 v70,2013-03-13 19:30:00,
2013-03-13 15:35:00,43.0,23.6,29.29,WSW,247,9.0,30.0,46,0.00,,,0.00,Weather View 32 v70,2013-03-13 19:35:00,
2013-03-13 15:40:00,43.0,22.5,29.29,WSW,247,10.0,30.0,44,0.00,,,0.00,Weather View 32 v70,2013-03-13 19:40:00,
2013-03-13 15:45:00,44.0,22.9,29.29,West,270,8.0,30.0,43,0.00,,,0.00,Weather View 32 v70,2013-03-13 19:45:00,
2013-03-13 15:50:00,44.0,21.2,29.29,South,180,10.0,30.0,40,0.00,,,0.00,Weather View 32 v70,2013-03-13 19:50:00,
2013-03-13 16:00:00,45.0,22.1,29.29,SSW,202,19.0,28.0,40,0.00,,,0.00,Weather View 32 v70,2013-03-13 20:00:00,
2013-03-13 16:05:00,44.0,21.2,29.29,WSW,247,12.0,28.0,40,0.00,,,0.00,Weather View 32 v70,2013-03-13 20:05:00,
2013-03-13 16:10:00,44.0,22.9,29.30,SW,225,19.0,23.0,43,0.00,,,0.00,Weather View 32 v70,2013-03-13 20:10:00,
2013-03-13 16:15:00,43.0,19.7,29.30,SSW,202,7.0,26.0,39,0.00,,,0.00,Weather View 32 v70,2013-03-13 20:15:00,
2013-03-13 16:25:00,43.0,22.0,29.30,West,270,10.0,26.0,43,0.00,,,0.00,Weather View 32 v70,2013-03-13 20:25:00,
2013-03-13 16:30:00,43.0,24.1,29.30,WSW,247,12.0,26.0,47,0.00,,,0.00,Weather View 32 v70,2013-03-13 20:30:00,
2013-03-13 16:35:00,43.0,24.1,29.30,West,270,13.0,26.0,47,0.00,,,0.00,Weather View 32 v70,2013-03-13 20:35:00,
2013-03-13 16:45:00,42.0,22.7,29.30,West,270,19.0,26.0,46,0.00,,,0.00,Weather View 32 v70,2013-03-13 20:45:00,
2013-03-13 16:50:00,42.0,23.2,29.28,ESE,112,4.0,33.0,47,0.00,,,0.00,Weather View 32 v70,2013-03-13 20:50:00,
2013-03-13 16:55:00,42.0,23.2,29.30,West,270,23.0,33.0,47,0.00,,,0.00,Weather View 32 v70,2013-03-13 20:55:00,
2013-03-13 17:00:00,42.0,22.7,29.31,West,270,17.0,33.0,46,0.00,,,0.00,Weather View 32 v70,2013-03-13 21:00:00,
2013-03-13 17:05:00,42.0,23.2,29.30,WNW,292,11.0,33.0,47,0.00,,,0.00,Weather View 32 v70,2013-03-13 21:05:00,
2013-03-13 17:10:00,41.0,24.2,29.32,West,270,16.0,33.0,51,0.00,,,0.00,Weather View 32 v70,2013-03-13 21:10:00,
2013-03-13 17:15:00,41.0,24.7,29.32,WSW,247,9.0,33.0,52,0.00,,,0.00,Weather View 32 v70,2013-03-13 21:15:00,
2013-03-13 17:20:00,40.0,23.3,29.32,West,270,11.0,33.0,51,0.00,,,0.00,Weather View 32 v70,2013-03-13 21:20:00,
2013-03-13 17:25:00,39.0,23.7,29.33,WSW,247,17.0,33.0,54,0.00,,,0.00,Weather View 32 v70,2013-03-13 21:25:00,
2013-03-13 17:35:00,39.0,23.3,29.32,SW,225,7.0,33.0,53,0.00,,,0.00,Weather View 32 v70,2013-03-13 21:35:00,
2013-03-13 17:40:00,40.0,24.7,29.32,SSW,202,6.0,33.0,54,0.00,,,0.00,Weather View 32 v70,2013-03-13 21:40:00,
2013-03-13 17:45:00,40.0,23.3,29.32,South,180,6.0,33.0,51,0.00,,,0.00,Weather View 32 v70,2013-03-13 21:45:00,
2013-03-13 17:50:00,40.0,24.2,29.32,SSW,202,7.0,29.0,53,0.00,,,0.00,Weather View 32 v70,2013-03-13 21:50:00,
2013-03-13 17:55:00,40.0,24.7,29.32,WSW,247,5.0,29.0,54,0.00,,,0.00,Weather View 32 v70,2013-03-13 21:55:00,
2013-03-13 18:00:00,40.0,22.8,29.32,West,270,10.0,29.0,50,0.00,,,0.00,Weather View 32 v70,2013-03-13 22:00:00,
2013-03-13 18:05:00,40.0,23.3,29.32,WNW,292,6.0,25.0,51,0.00,,,0.00,Weather View 32 v70,2013-03-13 22:05:00,
2013-03-13 18:10:00,40.0,23.3,29.32,West,270,3.0,25.0,51,0.00,,,0.00,Weather View 32 v70,2013-03-13 22:10:00,
2013-03-13 18:20:00,40.0,23.3,29.33,West,270,9.0,21.0,51,0.00,,,0.00,Weather View 32 v70,2013-03-13 22:20:00,
2013-03-13 18:30:00,40.0,22.8,29.33,WNW,292,9.0,23.0,50,0.00,,,0.00,Weather View 32 v70,2013-03-13 22:30:00,
2013-03-13 18:35:00,39.0,23.7,29.34,West,270,20.0,28.0,54,0.00,,,0.00,Weather View 32 v70,2013-03-13 22:35:00,
2013-03-13 18:40:00,38.0,24.1,29.35,West,270,13.0,28.0,57,0.00,,,0.00,Weather View 32 v70,2013-03-13 22:40:00,
2013-03-13 18:45:00,38.0,23.2,29.35,SW,225,14.0,28.0,55,0.00,,,0.00,Weather View 32 v70,2013-03-13 22:45:00,
2013-03-13 18:50:00,38.0,23.7,29.35,WNW,292,12.0,28.0,56,0.00,,,0.00,Weather View 32 v70,2013-03-13 22:50:00,
2013-03-13 18:55:00,38.0,21.9,29.35,West,270,6.0,28.0,52,0.00,,,0.00,Weather View 32 v70,2013-03-13 22:55:00,
2013-03-13 19:00:00,38.0,21.5,29.35,SW,225,10.0,28.0,51,0.00,,,0.00,Weather View 32 v70,2013-03-13 23:00:00,
2013-03-13 19:05:00,37.0,21.0,29.36,SW,225,9.0,28.0,52,0.00,,,0.00,Weather View 32 v70,2013-03-13 23:05:00,
2013-03-13 19:15:00,37.0,20.5,29.36,WSW,247,11.0,28.0,51,0.00,,,0.00,Weather View 32 v70,2013-03-13 23:15:00,
2013-03-13 19:20:00,37.0,20.5,29.36,SW,225,9.0,28.0,51,0.00,,,0.00,Weather View 32 v70,2013-03-13 23:20:00,
2013-03-13 19:25:00,37.0,20.5,29.36,SSW,202,10.0,28.0,51,0.00,,,0.00,Weather View 32 v70,2013-03-13 23:25:00,
2013-03-13 19:30:00,37.0,19.6,29.36,SW,225,13.0,28.0,49,0.00,,,0.00,Weather View 32 v70,2013-03-13 23:30:00,
2013-03-13 19:35:00,37.0,18.6,29.36,WSW,247,13.0,26.0,47,0.00,,,0.00,Weather View 32 v70,2013-03-13 23:35:00,
2013-03-13 19:40:00,37.0,19.6,29.37,SW,225,13.0,28.0,49,0.00,,,0.00,Weather View 32 v70,2013-03-13 23:40:00,
2013-03-13 19:45:00,37.0,18.6,29.37,SW,225,9.0,32.0,47,0.00,,,0.00,Weather View 32 v70,2013-03-13 23:45:00,
2013-03-13 19:50:00,36.0,17.7,29.37,West,270,7.0,32.0,47,0.00,,,0.00,Weather View 32 v70,2013-03-13 23:50:00,
2013-03-13 19:55:00,36.0,18.7,29.38,West,270,8.0,32.0,49,0.00,,,0.00,Weather View 32 v70,2013-03-13 23:55:00,
2013-03-13 20:00:00,36.0,18.7,29.38,WNW,292,13.0,32.0,49,0.00,,,0.00,Weather View 32 v70,2013-03-14 00:00:00,
2013-03-13 20:10:00,35.0,18.2,29.38,West,270,19.0,32.0,50,0.00,,,0.00,Weather View 32 v70,2013-03-14 00:10:00,
2013-03-13 20:15:00,35.0,18.2,29.38,WNW,292,5.0,32.0,50,0.00,,,0.00,Weather View 32 v70,2013-03-14 00:15:00,
2013-03-13 20:25:00,35.0,19.6,29.38,WSW,247,7.0,32.0,53,0.00,,,0.00,Weather View 32 v70,2013-03-14 00:25:00,
2013-03-13 20:30:00,35.0,20.0,29.39,West,270,12.0,32.0,54,0.00,,,0.00,Weather View 32 v70,2013-03-14 00:30:00,
2013-03-13 20:35:00,34.0,19.9,29.39,NNW,337,11.0,32.0,56,0.00,,,0.00,Weather View 32 v70,2013-03-14 00:35:00,
2013-03-13 20:40:00,34.0,19.9,29.38,SW,225,6.0,32.0,56,0.00,,,0.00,Weather View 32 v70,2013-03-14 00:40:00,
2013-03-13 20:45:00,34.0,20.4,29.39,West,270,13.0,29.0,57,0.00,,,0.00,Weather View 32 v70,2013-03-14 00:45:00,
2013-03-13 20:50:00,34.0,20.4,29.39,WSW,247,10.0,29.0,57,0.00,,,0.00,Weather View 32 v70,2013-03-14 00:50:00,
2013-03-13 21:00:00,33.0,21.8,29.39,SW,225,18.0,29.0,63,0.00,,,0.00,Weather View 32 v70,2013-03-14 01:00:00,
2013-03-13 21:05:00,33.0,21.4,29.39,SSW,202,7.0,26.0,62,0.00,,,0.00,Weather View 32 v70,2013-03-14 01:05:00,
2013-03-13 21:10:00,33.0,21.0,29.40,SSW,202,8.0,26.0,61,0.00,,,0.00,Weather View 32 v70,2013-03-14 01:10:00,
2013-03-13 21:15:00,33.0,22.1,29.40,South,180,7.0,26.0,64,0.00,,,0.00,Weather View 32 v70,2013-03-14 01:15:00,
2013-03-13 21:20:00,33.0,21.4,29.40,WSW,247,7.0,26.0,62,0.00,,,0.00,Weather View 32 v70,2013-03-14 01:20:00,
2013-03-13 21:25:00,33.0,21.0,29.40,West,270,18.0,22.0,61,0.00,,,0.00,Weather View 32 v70,2013-03-14 01:25:00,
2013-03-13 21:30:00,32.0,20.4,29.40,West,270,13.0,22.0,62,0.00,,,0.00,Weather View 32 v70,2013-03-14 01:30:00,
2013-03-13 21:35:00,33.0,20.6,29.40,West,270,9.0,22.0,60,0.00,,,0.00,Weather View 32 v70,2013-03-14 01:35:00,
2013-03-13 21:40:00,33.0,21.0,29.40,West,270,12.0,22.0,61,0.00,,,0.00,Weather View 32 v70,2013-03-14 01:40:00,
2013-03-13 21:45:00,32.0,20.8,29.40,West,270,14.0,22.0,63,0.00,,,0.00,Weather View 32 v70,2013-03-14 01:45:00,
2013-03-13 21:50:00,32.0,20.8,29.40,West,270,6.0,22.0,63,0.00,,,0.00,Weather View 32 v70,2013-03-14 01:50:00,
2013-03-13 21:55:00,32.0,20.4,29.40,WNW,292,9.0,22.0,62,0.00,,,0.00,Weather View 32 v70,2013-03-14 01:55:00,
2013-03-13 22:05:00,32.0,20.8,29.41,SW,225,9.0,22.0,63,0.00,,,0.00,Weather View 32 v70,2013-03-14 02:05:00,
2013-03-13 22:15:00,31.0,21.3,29.41,West,270,10.0,28.0,67,0.00,,,0.00,Weather View 32 v70,2013-03-14 02:15:00,
2013-03-13 22:20:00,31.0,21.3,29.41,WSW,247,6.0,28.0,67,0.00,,,0.00,Weather View 32 v70,2013-03-14 02:20:00,
2013-03-13 22:25:00,31.0,21.3,29.41,West,270,12.0,28.0,67,0.00,,,0.00,Weather View 32 v70,2013-03-14 02:25:00,
2013-03-13 22:30:00,31.0,20.6,29.41,WSW,247,15.0,28.0,65,0.00,,,0.00,Weather View 32 v70,2013-03-14 02:30:00,
2013-03-13 22:35:00,31.0,20.2,29.41,WSW,247,6.0,28.0,64,0.00,,,0.00,Weather View 32 v70,2013-03-14 02:35:00,
2013-03-13 22:45:00,31.0,20.6,29.41,West,270,10.0,28.0,65,0.00,,,0.00,Weather View 32 v70,2013-03-14 02:45:00,
2013-03-13 22:54:00,31.0,19.1,29.40,West,270,13.0,28.0,61,0.00,,,0.00,Weather View 32 v70,2013-03-14 02:54:00,
2013-03-13 23:00:00,31.0,19.1,29.41,SW,225,11.0,28.0,61,0.00,,,0.00,Weather View 32 v70,2013-03-14 03:00:00,
2013-03-13 23:05:00,31.0,18.7,29.41,SW,225,12.0,28.0,60,0.00,,,0.00,Weather View 32 v70,2013-03-14 03:05:00,
2013-03-13 23:10:00,31.0,19.1,29.41,West,270,9.0,28.0,61,0.00,,,0.00,Weather View 32 v70,2013-03-14 03:10:00,
2013-03-13 23:15:00,31.0,19.1,29.41,WSW,247,8.0,28.0,61,0.00,,,0.00,Weather View 32 v70,2013-03-14 03:15:00,
2013-03-13 23:20:00,31.0,19.5,29.41,South,180,9.0,28.0,62,0.00,,,0.00,Weather View 32 v70,2013-03-14 03:20:00,
2013-03-13 23:25:00,31.0,19.5,29.41,SW,225,10.0,28.0,62,0.00,,,0.00,Weather View 32 v70,2013-03-14 03:25:00,
2013-03-13 23:30:00,31.0,19.9,29.41,West,270,12.0,28.0,63,0.00,,,0.00,Weather View 32 v70,2013-03-14 03:30:00,
2013-03-13 23:40:00,31.0,19.1,29.41,SW,225,15.0,28.0,61,0.00,,,0.00,Weather View 32 v70,2013-03-14 03:40:00,
2013-03-13 23:45:00,31.0,19.1,29.41,NW,315,11.0,28.0,61,0.00,,,0.00,Weather View 32 v70,2013-03-14 03:45:00,
2013-03-13 23:50:00,31.0,18.7,29.41,WSW,247,7.0,26.0,60,0.00,,,0.00,Weather View 32 v70,2013-03-14 03:50:00,